McKinleyville, CA

10:30 PM PST on January 19, 2017 (GMT -0800)
Arcata

Weather History for KACV - July, 2014

Change the Weather History Date:

Tuesday, July 15, 2014

  Actual Average Record
Temperature  
Mean Temperature 59 °F -  
Max Temperature 66 °F 61 °F 71 °F (2007)
Min Temperature 54 °F 49 °F 44 °F (2011)
Degree Days  
Heating Degree Days 6    
Growing Degree Days 9 (Base 50)    
Moisture  
Dew Point 53 °F    
Average Humidity 89    
Maximum Humidity 97    
Minimum Humidity 67    
Precipitation  
Precipitation 0.00 in - - ()
Sea Level Pressure  
Sea Level Pressure 29.95 in    
Wind  
Wind Speed 4 mph (SSW)    
Max Wind Speed 14 mph    
Max Gust Speed -    
Visibility 4 miles    
Events Fog    
Averages and records for this station are not official NWS values.
T = Trace of Precipitation, MM = Missing Value Source: NWS Daily Summary

Daily Weather History Graph

Daily Weather History Graph

Search for Another Location

Airport or City:

Trip Planner

Search our weather history database for the weather conditions in past years. The results will help you decide how hot, cold, wet, or windy it might be!

Date:

Astronomy

Jul. 15, 2014 Rise Set
Actual Time 5:57 AM PDT 8:47 PM PDT
Civil Twilight 5:24 AM PDT 9:19 PM PDT
Nautical Twilight 4:43 AM PDT 10:00 PM PDT
Astronomical Twilight 3:56 AM PDT 10:47 PM PDT
Moon 10:56 PM PDT (7/15) 10:00 AM PDT (7/15)
Length of Visible Light 15h 54m
Length of Day
14h 49m
Waning Gibbous, 84% of the Moon is Illuminated
Jul 15
Waning Gibbous
Jul 18
Last Quarter
Jul 26
New
Aug 3
First Quarter
Aug 10
Full

Hourly Weather History & Observations

Time (PDT) Temp. Dew Point Humidity Pressure Visibility Wind Dir Wind Speed Gust Speed Precip Events Conditions
12:07 AM 55.9 °F 54.0 °F 93% 29.90 in 0.2 mi North 3.5 mph - N/A Fog Fog
12:21 AM 55.9 °F 54.0 °F 93% 29.90 in 0.2 mi North 4.6 mph - N/A Fog Fog
12:53 AM 55.9 °F 54.0 °F 93% 29.91 in 0.2 mi NNW 3.5 mph - N/A Fog Fog
1:16 AM 55.0 °F 53.1 °F 93% 29.90 in 0.2 mi NNW 3.5 mph - N/A Fog Fog
1:23 AM 55.0 °F 53.1 °F 93% 29.89 in 0.2 mi NNW 4.6 mph - N/A Fog Fog
1:53 AM 54.0 °F 52.0 °F 93% 29.91 in 0.2 mi NNW 3.5 mph - N/A Fog Fog
2:15 AM 55.0 °F 53.1 °F 93% 29.89 in 0.2 mi Calm Calm - N/A Fog Fog
2:37 AM 55.0 °F 53.1 °F 93% 29.89 in 0.5 mi Calm Calm - N/A Fog Fog
2:53 AM 55.0 °F 54.0 °F 96% 29.91 in 0.2 mi Calm Calm - N/A Fog Fog
3:26 AM 54.0 °F 53.1 °F 97% 29.90 in 0.2 mi WSW 3.5 mph - N/A Fog Fog
3:53 AM 54.0 °F 53.1 °F 97% 29.92 in 0.2 mi SSW 4.6 mph - N/A Fog Fog
4:24 AM 54.0 °F 53.1 °F 97% 29.91 in 0.2 mi SSW 3.5 mph - N/A Fog Fog
4:53 AM 54.0 °F 53.1 °F 97% 29.92 in 0.2 mi Calm Calm - N/A Fog Fog
5:10 AM 54.0 °F 53.1 °F 97% 29.91 in 0.2 mi South 3.5 mph - N/A Fog Fog
5:28 AM 54.0 °F 53.1 °F 97% 29.91 in 0.5 mi Calm Calm - N/A Fog Fog
5:41 AM 54.0 °F 53.1 °F 97% 29.91 in 0.2 mi Calm Calm - N/A Fog Fog
5:53 AM 54.0 °F 53.1 °F 97% 29.93 in 0.2 mi SE 3.5 mph - N/A Fog Fog
6:37 AM 54.0 °F 53.1 °F 97% 29.93 in 0.2 mi Calm Calm - N/A Fog Fog
6:53 AM 55.0 °F 53.1 °F 93% 29.94 in 0.2 mi Calm Calm - N/A Fog Fog
7:08 AM 55.0 °F 54.0 °F 96% 29.93 in 0.2 mi Calm Calm - N/A Fog Fog
7:53 AM 55.9 °F 54.0 °F 93% 29.96 in 0.2 mi South 3.5 mph - N/A Fog Fog
8:01 AM 55.9 °F 55.0 °F 97% 29.95 in 0.5 mi SSW 3.5 mph - N/A Fog Fog
8:04 AM 55.9 °F 55.0 °F 97% 29.95 in 0.2 mi SSW 3.5 mph - N/A Fog Fog
8:22 AM 57.0 °F 55.0 °F 93% 29.95 in 1.0 mi South 4.6 mph - N/A   Mist
8:31 AM 57.0 °F 55.0 °F 93% 29.96 in 5.0 mi South 8.1 mph - N/A   Overcast
8:53 AM 57.9 °F 57.0 °F 97% 29.98 in 5.0 mi South 4.6 mph - N/A   Overcast
9:25 AM 57.9 °F 55.9 °F 93% 29.96 in 10.0 mi South 5.8 mph - N/A   Scattered Clouds
9:53 AM 62.1 °F 55.0 °F 78% 29.98 in 10.0 mi South 9.2 mph - N/A   Partly Cloudy
10:53 AM 62.1 °F 54.0 °F 75% 29.99 in 10.0 mi SW 8.1 mph - N/A   Clear
11:53 AM 63.0 °F 54.0 °F 72% 29.99 in 10.0 mi SSW 11.5 mph - N/A   Clear
12:53 PM 64.0 °F 54.0 °F 70% 30.00 in 10.0 mi SSW 13.8 mph - N/A   Clear
1:53 PM 62.1 °F 53.1 °F 72% 30.01 in 10.0 mi SSW 11.5 mph - N/A   Clear
2:53 PM 62.1 °F 53.1 °F 72% 30.01 in 10.0 mi SW 11.5 mph - N/A   Clear
3:53 PM 62.1 °F 53.1 °F 72% 30.01 in 10.0 mi SW 11.5 mph - N/A   Clear
4:53 PM 64.0 °F 53.1 °F 67% 30.02 in 10.0 mi South 11.5 mph - N/A   Clear
5:53 PM 61.0 °F 52.0 °F 72% 30.02 in 10.0 mi SSW 10.4 mph - N/A   Clear
6:53 PM 60.1 °F 52.0 °F 75% 30.01 in 10.0 mi SW 8.1 mph - N/A   Partly Cloudy
7:53 PM 57.9 °F 52.0 °F 81% 30.01 in 10.0 mi South 6.9 mph - N/A   Clear
8:34 PM 55.9 °F 52.0 °F 87% 30.00 in 8.0 mi SSW 5.8 mph - N/A   Partly Cloudy
8:46 PM 55.9 °F 52.0 °F 87% 30.00 in 8.0 mi South 5.8 mph - N/A   Mostly Cloudy
9:53 PM 55.9 °F 52.0 °F 87% 30.02 in 9.0 mi South 5.8 mph - N/A   Overcast
10:53 PM 55.9 °F 53.1 °F 90% 30.02 in 10.0 mi Calm Calm - N/A   Overcast
11:53 PM 57.0 °F 53.1 °F 87% 30.01 in 6.0 mi South 5.8 mph - N/A   Overcast